Rochester, MN
on Sunday, June 23, 2013

Sunday
Previous Day Next Day
Daily Summary
 ActualAverageRecord
Temperature
Mean Temperature °F 70°F  
Max Temperature 79°F 80°F 100°F (1934)
Min Temperature 66°F 60°F 38°F (1972)
Degree Days
Heating Degree Days 0 1  
Month to date heating degree days 60 49  
Since 1 June heating degree days 60  
Since 1 July heating degree days 7825 7719  
Cooling Degree Days 8 6  
Month to date cooling degree days 81 86  
Year to date cooling degree days 111 120  
Since 1 June cooling degree days 81  
Growing Degree Days22 (Base °F )  
Moisture
Dew Point 65°F   
Average Humidity 78    
Maximum Humidity 93    
Minimum Humidity 62    
Precipitation
Precipitation 0.46 in 0.16 in 4.10 in (1908)
Month to date precipitation 4.82 3.60  
Year to date precipitation 28.72 14.04  
Since 1 June precipitation 4.82 3.60  
Snow
Snow 0.00 in 0.00 in 0.00 in (2012)
Month to date snowfall 0.0 0.0  
Since 1 June snowfall 0.0  
Since 1 July snowfall 74.0 51.9  
Snow Depth 0.00 in   
Wind
Wind Speed 15 mph   
Max Wind Speed 30 mph   
Max Gust Speed 35 mph   
Visibility 8 miles   
Events Rain , Thunderstorm   

Key: T is trace of precipitation, MM is missing value
Source: NWS Daily Summary
Time(CDT)TemperatureDew PointHumidity Pressure Visibility Wind DirectionWind SpeedGust SpeedPrecipitationEvents Conditions
12:00 AM 69.8°F 66.2°F 88% 29.89 in 8.0 miles SE 13.8 mph - 0.00 in Rain , Thunderstorm Light Rain
12:54 AM 70.0°F 66.9°F 90% 29.87 in 3.0 miles SSE 15.0 mph - 0.18 in Rain , Thunderstorm Heavy Thunderstorms and Rain
1:50 AM 68.0°F 66.2°F 94% 29.91 in 1.2 miles Variable 5.8 mph - 0.16 in Rain , Thunderstorm Heavy Thunderstorms and Rain
1:54 AM 68.0°F 66.0°F 93% 29.85 in 1.0 miles East 11.5 mph - 0.32 in Rain , Thunderstorm Heavy Thunderstorms and Rain
2:01 AM 68.0°F 66.2°F 94% 29.90 in 2.0 miles SE 12.7 mph - 0.08 in Rain , Thunderstorm Light Thunderstorms and Rain
2:09 AM 66.2°F 64.4°F 94% 29.90 in 7.0 miles SE 16.1 mph - 0.09 in Rain , Thunderstorm Light Thunderstorms and Rain
2:39 AM 66.2°F 62.6°F 88% 29.91 in 9.0 miles SE 13.8 mph - 0.09 in   Partly Cloudy
2:54 AM 66.0°F 63.0°F 90% 29.89 in 9.0 miles SE 17.3 mph - 0.09 in   Partly Cloudy
3:41 AM 66.2°F 62.6°F 88% 29.88 in 10.0 miles SSE 21.9 mph - N/A   Partly Cloudy
3:54 AM 66.0°F 63.0°F 90% 29.86 in 10.0 miles SE 23.0 mph 29.9 mph N/A   Partly Cloudy
4:54 AM 66.9°F 62.1°F 84% 29.82 in 10.0 miles SE 20.7 mph 29.9 mph N/A   Clear
5:54 AM 68.0°F 61.0°F 78% 29.82 in 8.0 miles SSE 19.6 mph 29.9 mph N/A   Overcast
6:54 AM 69.1°F 62.1°F 78% 29.83 in 8.0 miles South 19.6 mph 25.3 mph N/A   Clear
7:54 AM 71.1°F 64.9°F 81% 29.84 in 9.0 miles South 13.8 mph - N/A   Mostly Cloudy
8:54 AM 70.0°F 66.0°F 87% 29.84 in 6.0 miles South 17.3 mph 25.3 mph 0.03 in Rain Light Rain
9:54 AM 71.1°F 66.0°F 84% 29.83 in 8.0 miles South 16.1 mph - 0.02 in Rain Light Rain
10:54 AM 71.1°F 61.0°F 70% 29.75 in 10.0 miles SSE 12.7 mph - 0.00 in   Partly Cloudy
11:54 AM 73.9°F 63.0°F 68% 29.82 in 10.0 miles SSW 17.3 mph 24.2 mph N/A   Clear
12:54 PM 73.9°F 63.0°F 68% 29.84 in 10.0 miles SSW 24.2 mph - N/A   Clear
1:54 PM 73.9°F 64.0°F 71% 29.85 in 10.0 miles SW 21.9 mph 26.5 mph N/A   Clear
2:54 PM 78.1°F 64.0°F 62% 29.83 in 10.0 miles SW 20.7 mph - N/A   Clear
3:54 PM 78.1°F 64.9°F 64% 29.84 in 10.0 miles SSW 19.6 mph - N/A   Clear
4:54 PM 78.1°F 66.9°F 68% 29.84 in 10.0 miles SSW 15.0 mph - N/A   Scattered Clouds
5:54 PM 77.0°F 66.9°F 71% 29.86 in 10.0 miles SW 16.1 mph - N/A   Overcast
6:54 PM 77.0°F 68.0°F 74% 29.85 in 10.0 miles SSW 11.5 mph - N/A   Clear
7:54 PM 77.0°F 68.0°F 74% 29.87 in 10.0 miles SSW 8.1 mph - N/A   Clear
8:54 PM 73.9°F 69.1°F 85% 29.88 in 10.0 miles South 5.8 mph - N/A   Clear
9:54 PM 72.0°F 68.0°F 87% 29.90 in 10.0 miles South 5.8 mph - N/A   Clear
10:54 PM 70.0°F 66.0°F 87% 29.92 in 10.0 miles South 4.6 mph - N/A   Clear
11:54 PM 69.1°F 64.9°F 87% 29.92 in 10.0 miles South 6.9 mph - N/A   Clear
Astronomy
Sunrise:05:28 AM (CDT) Moon Rise:09:05 PM (CDT)6/23
Sunset:08:56 PM (CDT) Moon Set:05:48 AM (CDT)6/23
Moon Phase
Jun. 23 Jun. 30 Jul. 08 Jul. 15 Jul. 22

Copyright © 2015 The Weather Underground, Inc.